Vorticity
21 20 31 9 10 15 14 6 12 13 8 -1 1 45 -8 1 2 5 39 0 7 -2 1 1 5 9 6 6 6 7 6 2 4 -0 9 4 3 -1 -3 1 3 6 7 8 5 5 6 4 5
21 23 23 8 12 13 7 15 9 16 4 1 22 11 -26 -12 -7 -36 -3 14 17 35 -1 1 6 8 6 4 4 6 3 2 2 2 3 6 6 4 6 5 9 8 6 4 7 7 7 5 5
19 27 14 12 14 9 6 9 -7 -10 14 20 14 14 5 20 8 8 5 10 17 3 14 15 17 10 2 1 4 3 -1 7 4 4 1 3 6 4 7 6 6 -1 5 1 6 6 8 7 3
14 28 13 11 7 11 -11 -4 16 22 16 7 7 9 10 -6 11 16 -14 -0 14 4 28 5 4 7 5 5 3 -3 -3 8 6 7 15 9 6 7 6 1 8 5 6 5 9 8 8 8 3
20 20 17 7 10 17 30 -6 17 7 10 8 5 11 11 2 -14 31 -46 63 47 6 1 1 3 5 -0 1 7 8 6 13 -2 14 9 8 8 8 8 3 3 11 1 8 8 11 10 8 7
19 15 3 6 10 9 20 11 9 12 9 4 3 -6 22 21 10 8 42 25 26 2 0 1 2 1 13 21 18 10 7 41 -20 5 6 8 5 4 5 5 9 8 8 11 22 15 3 8 2
21 13 6 16 2 24 -6 14 10 8 8 12 -6 8 10 18 5 3 3 6 3 9 6 13 15 7 9 -3 -5 4 6 -0 2 9 4 7 2 4 -5 2 15 4 14 19 3 5 7 1 4
18 13 8 7 9 -1 30 9 10 8 -0 -1 8 13 3 -1 9 11 3 5 6 7 -5 8 3 11 13 6 0 1 4 -17 15 16 32 -3 1 2 2 11 13 26 17 2 7 5 0 0 2
17 6 9 1 5 -1 19 8 13 9 6 5 8 8 2 10 7 3 3 0 2 -5 8 9 3 8 5 23 -17 5 9 9 4 5 2 18 -2 -4 12 11 26 5 5 4 3 4 4 5 11
19 1 7 17 -6 1 7 10 4 14 10 5 11 11 9 6 8 4 3 0 16 8 6 6 7 6 -4 -17 36 -3 10 34 -16 1 18 -8 32 -3 38 27 2 7 2 0 1 5 10 8 2
11 -9 15 4 2 5 5 49 26 6 13 9 14 5 9 7 12 8 5 8 0 -3 -2 4 6 9 47 -7 24 41 -10 5 -4 10 28 12 46 -25 34 14 4 2 1 3 5 3 9 1 1
9 14 14 6 13 2 4 -9 -16 39 -5 17 5 9 6 15 3 7 7 6 5 7 11 12 3 5 4 18 14 -21 11 12 43 1 12 60 29 5 33 3 3 4 3 3 8 6 1 1 2
11 4 2 2 14 3 4 19 8 12 19 24 25 1 7 17 5 2 4 12 4 6 1 9 11 6 15 15 19 13 19 39 -1 16 42 11 33 22 2 1 4 3 3 13 2 1 1 1 2
24 7 5 16 -7 13 21 20 17 4 5 12 38 25 2 10 -3 5 13 13 10 13 16 8 27 13 12 9 -3 15 6 24 22 16 34 33 7 -0 1 -0 -1 9 8 0 1 1 0 1 2
0 -0 4 -5 -5 3 8 -10 17 13 4 8 11 25 33 6 32 19 5 12 14 3 17 30 11 23 44 50 49 51 47 39 40 21 3 -1 -0 2 2 12 15 6 1 0 -0 0 0 1 2
6 10 11 -12 5 5 3 -3 3 20 7 6 9 11 12 17 19 21 28 19 52 25 17 16 10 17 5 11 3 2 2 -0 2 3 2 3 2 3 12 5 3 1 0 0 0 0 1 2 5
23 -2 1 19 3 9 5 21 -3 1 26 4 6 8 7 4 9 8 26 4 1 4 2 5 7 -0 3 2 3 3 3 6 7 4 3 5 5 10 8 3 1 1 1 0 1 1 1 5 1
14 -1 13 -9 14 10 4 2 -4 5 12 11 6 12 9 7 5 4 7 7 3 3 4 1 4 3 2 3 2 1 3 3 5 2 2 -2 7 13 4 1 0 0 1 1 1 -1 3 10 4
-3 10 -2 7 2 2 6 10 4 3 15 8 4 5 13 10 6 6 4 2 3 3 4 5 4 4 6 4 7 6 4 4 3 4 4 3 11 9 3 1 1 0 1 -0 -1 2 3 3 -5
31 21 4 8 -3 1 1 6 5 4 11 3 8 6 9 9 8 6 3 2 3 3 4 5 5 7 7 8 10 11 10 8 6 7 9 10 7 4 2 1 1 2 3 3 3 7 9 4 -3
13 9 6 -4 25 1 -15 25 -1 17 6 5 7 18 3 8 7 8 7 8 6 6 8 7 6 5 6 5 5 7 9 9 10 12 10 7 3 1 -0 0 -1 2 6 8 9 9 8 10 -3
11 20 2 14 -10 8 16 9 4 -1 4 9 5 6 9 3 8 10 10 9 6 4 4 4 4 5 5 6 7 7 6 9 7 7 5 5 5 -1 2 -0 3 4 8 12 9 7 2 -3 5
13 3 16 4 8 5 14 -1 16 -7 -1 9 6 4 7 12 6 6 4 3 2 3 0 -1 1 3 4 5 8 7 6 7 9 10 5 3 3 5 0 5 -0 5 -1 4 2 7 6 2 3
-4 21 10 12 -1 10 10 7 14 5 17 17 -3 10 3 7 5 4 6 6 6 4 4 3 3 4 5 3 8 11 10 8 9 10 8 10 13 4 7 2 1 -3 1 -5 17 8 3 12 -12
6 8 6 2 5 2 13 13 -2 -7 6 4 -19 -5 5 6 16 14 12 -6 16 17 10 5 4 4 5 3 3 7 12 5 5 2 14 4 1 9 11 8 9 17 -6 3 26 -9 -4 25 -9
10 11 9 8 10 5 5 7 -3 10 -4 7 7 3 4 -3 1 4 11 10 3 2 4 8 12 10 8 24 2 8 10 4 4 5 3 3 4 -1 -7 6 21 6 -0 3 20 13 32 -2 12
10 6 23 -7 -1 2 -7 23 5 7 9 14 8 3 3 7 8 5 10 5 2 2 1 3 4 7 7 8 8 2 8 4 4 2 3 4 9 39 9 4 8 7 2 7 4 38 -3 20 -14
6 1 13 5 3 15 17 8 -0 12 7 8 14 10 15 14 17 7 2 -2 16 4 5 9 10 9 7 13 -6 26 3 1 2 1 2 8 10 9 9 5 2 1 6 7 2 -8 -5 -17 -7
21 11 1 8 15 3 9 -2 25 5 4 4 10 10 13 19 -6 13 19 4 5 1 1 7 8 8 8 6 3 2 6 3 3 1 5 2 6 7 9 6 7 7 10 11 5 7 8 8 11
-1 9 18 18 -5 10 -12 -25 6 5 -1 -5 -6 18 12 20 14 10 9 10 6 4 9 8 6 6 6 5 5 4 4 2 2 6 2 6 7 7 5 5 6 10 11 8 9 10 11 4 9
Height
5783 5776 5773 5774 5777 5776 5779 5785 5787 5786 5787 5783 5784 5769 5792 5788 5786 5787 5790 5797 5800 5806 5807 5811 5815 5818 5819 5821 5823 5825 5825 5826 5826 5826 5826 5826 5827 5828 5828 5829 5829 5829 5829 5829 5830 5830 5831 5831 5832
5777 5772 5770 5771 5774 5779 5783 5784 5780 5781 5780 5775 5780 5781 5784 5779 5784 5782 5789 5793 5800 5799 5802 5805 5809 5812 5814 5817 5819 5820 5821 5821 5822 5822 5822 5822 5823 5824 5824 5825 5826 5826 5827 5828 5827 5828 5828 5828 5830
5772 5768 5769 5770 5773 5778 5779 5775 5774 5772 5773 5775 5775 5778 5780 5780 5785 5784 5786 5787 5795 5794 5796 5800 5803 5805 5810 5812 5814 5816 5817 5818 5819 5819 5818 5818 5818 5819 5820 5822 5822 5823 5824 5825 5825 5826 5826 5825 5827
5770 5767 5768 5769 5773 5777 5774 5771 5766 5770 5770 5771 5773 5775 5776 5774 5775 5775 5777 5783 5787 5791 5791 5793 5797 5801 5805 5808 5810 5812 5813 5814 5815 5814 5814 5814 5815 5815 5815 5817 5819 5820 5820 5821 5821 5822 5823 5823 5824
5768 5767 5769 5772 5773 5770 5767 5766 5766 5766 5770 5768 5770 5769 5772 5772 5768 5772 5758 5765 5757 5774 5785 5788 5793 5798 5801 5803 5806 5808 5809 5810 5810 5810 5809 5810 5811 5811 5811 5815 5816 5817 5818 5818 5818 5819 5819 5820 5821
5767 5768 5772 5777 5775 5768 5765 5763 5764 5765 5766 5767 5768 5760 5767 5772 5769 5770 5769 5772 5763 5773 5781 5786 5790 5793 5796 5799 5801 5802 5803 5803 5804 5806 5806 5808 5807 5807 5809 5812 5814 5814 5814 5815 5815 5816 5817 5819 5819
5767 5768 5774 5773 5772 5761 5765 5763 5763 5763 5765 5762 5750 5762 5762 5768 5769 5772 5773 5772 5772 5774 5779 5784 5786 5788 5792 5795 5796 5798 5799 5798 5799 5801 5802 5804 5803 5802 5804 5808 5810 5811 5811 5812 5813 5815 5816 5817 5817
5767 5768 5774 5773 5772 5766 5763 5761 5761 5762 5764 5759 5759 5762 5763 5765 5767 5767 5770 5771 5770 5774 5774 5777 5780 5783 5787 5789 5792 5793 5793 5792 5795 5795 5797 5798 5798 5798 5802 5805 5806 5807 5808 5810 5811 5814 5814 5816 5816
5767 5770 5773 5773 5769 5764 5761 5760 5759 5759 5760 5759 5759 5760 5762 5762 5765 5765 5768 5769 5768 5772 5774 5775 5775 5778 5779 5783 5782 5786 5784 5786 5784 5790 5790 5791 5792 5794 5796 5798 5801 5805 5807 5809 5811 5812 5813 5814 5814
5767 5773 5773 5768 5764 5762 5760 5759 5756 5757 5758 5755 5756 5757 5759 5762 5763 5763 5763 5767 5768 5770 5771 5771 5772 5774 5776 5776 5777 5778 5779 5779 5782 5784 5783 5784 5787 5789 5791 5794 5799 5803 5805 5807 5808 5810 5811 5811 5811
5766 5768 5767 5767 5762 5761 5760 5757 5756 5753 5741 5729 5749 5752 5754 5757 5759 5760 5761 5762 5764 5763 5766 5766 5769 5770 5766 5772 5769 5770 5773 5776 5776 5776 5776 5778 5781 5784 5788 5790 5798 5801 5804 5806 5806 5808 5809 5809 5809
5766 5766 5765 5763 5762 5760 5760 5759 5757 5751 5747 5747 5747 5749 5751 5753 5754 5756 5758 5758 5758 5759 5760 5761 5764 5766 5769 5770 5770 5768 5771 5771 5771 5773 5773 5777 5780 5781 5784 5791 5797 5800 5803 5804 5804 5806 5807 5806 5806
5766 5765 5764 5763 5761 5761 5760 5757 5755 5754 5748 5745 5747 5747 5748 5749 5750 5753 5754 5753 5754 5755 5755 5756 5759 5761 5764 5766 5767 5767 5768 5767 5768 5769 5772 5776 5779 5781 5785 5791 5796 5799 5800 5802 5804 5804 5803 5802 5802
5765 5764 5763 5763 5763 5760 5757 5755 5753 5753 5751 5748 5744 5743 5745 5747 5746 5748 5749 5749 5749 5750 5751 5754 5753 5755 5758 5760 5761 5761 5762 5761 5763 5768 5771 5775 5778 5783 5785 5790 5794 5797 5799 5799 5802 5800 5800 5798 5796
5764 5764 5764 5765 5764 5759 5758 5754 5753 5753 5751 5749 5747 5745 5745 5745 5742 5745 5745 5746 5747 5748 5749 5751 5751 5753 5756 5756 5756 5756 5759 5763 5767 5769 5773 5775 5780 5784 5786 5788 5791 5794 5796 5797 5796 5795 5795 5794 5793
5765 5768 5766 5763 5765 5761 5756 5745 5755 5754 5752 5751 5751 5748 5746 5745 5742 5742 5742 5744 5745 5747 5748 5749 5752 5752 5755 5757 5761 5762 5766 5768 5767 5768 5775 5780 5783 5784 5787 5787 5790 5792 5794 5794 5791 5792 5790 5790 5788
5767 5769 5764 5764 5765 5764 5757 5741 5754 5754 5753 5752 5752 5751 5750 5748 5749 5748 5748 5747 5750 5752 5754 5755 5756 5757 5761 5761 5762 5764 5764 5765 5768 5773 5777 5780 5781 5784 5786 5788 5789 5790 5790 5790 5788 5788 5786 5785 5783
5769 5770 5769 5765 5764 5763 5764 5763 5758 5756 5754 5754 5754 5753 5753 5753 5753 5752 5753 5753 5756 5757 5758 5759 5757 5759 5761 5762 5763 5764 5766 5769 5771 5774 5778 5778 5780 5783 5785 5785 5787 5786 5786 5786 5784 5783 5781 5780 5779
5763 5765 5768 5763 5760 5762 5763 5760 5761 5757 5755 5755 5755 5755 5755 5754 5754 5754 5755 5757 5759 5759 5759 5759 5760 5761 5763 5765 5765 5766 5769 5770 5771 5774 5776 5777 5779 5781 5782 5782 5782 5783 5783 5779 5778 5777 5775 5773 5772
5758 5762 5767 5763 5761 5763 5763 5764 5758 5757 5756 5755 5755 5755 5755 5756 5755 5756 5756 5757 5759 5760 5761 5762 5762 5764 5766 5767 5769 5769 5769 5769 5770 5771 5773 5776 5777 5779 5779 5778 5778 5777 5776 5774 5773 5770 5768 5766 5763
5754 5760 5761 5763 5759 5761 5762 5763 5761 5758 5756 5756 5755 5755 5756 5755 5756 5757 5757 5759 5759 5760 5761 5761 5762 5763 5764 5765 5766 5767 5768 5767 5769 5771 5772 5773 5774 5774 5773 5773 5773 5771 5769 5769 5766 5762 5760 5758 5755
5754 5756 5754 5756 5759 5761 5759 5761 5759 5760 5757 5756 5755 5755 5755 5756 5756 5757 5758 5759 5760 5761 5761 5762 5762 5763 5763 5765 5766 5767 5767 5768 5768 5769 5770 5770 5770 5770 5769 5768 5767 5766 5763 5761 5757 5754 5752 5748 5744
5753 5750 5752 5754 5757 5758 5758 5758 5758 5757 5755 5754 5755 5755 5755 5755 5756 5757 5757 5758 5759 5761 5761 5761 5762 5762 5763 5763 5764 5764 5764 5764 5765 5766 5765 5764 5766 5766 5765 5761 5761 5757 5754 5751 5749 5746 5742 5737 5733
5746 5748 5749 5750 5753 5755 5754 5757 5752 5757 5757 5756 5753 5753 5753 5755 5756 5756 5757 5758 5759 5759 5759 5759 5760 5760 5761 5761 5761 5761 5760 5761 5761 5761 5761 5761 5760 5758 5756 5754 5752 5750 5746 5744 5739 5736 5732 5727 5723
5741 5744 5749 5750 5751 5751 5752 5753 5754 5750 5755 5754 5753 5754 5751 5751 5753 5753 5754 5755 5755 5756 5757 5757 5757 5757 5757 5757 5757 5757 5757 5757 5757 5756 5756 5755 5752 5750 5747 5746 5743 5740 5738 5737 5733 5729 5725 5721 5715
5737 5741 5744 5744 5745 5748 5748 5750 5752 5752 5749 5749 5749 5750 5751 5749 5749 5750 5750 5750 5750 5750 5751 5752 5753 5753 5753 5754 5753 5752 5752 5751 5751 5751 5750 5748 5745 5741 5734 5740 5735 5734 5731 5728 5723 5719 5712 5710 5705
5735 5736 5741 5742 5741 5744 5744 5746 5746 5745 5746 5746 5746 5747 5746 5746 5746 5747 5747 5747 5747 5747 5748 5748 5748 5748 5748 5749 5745 5741 5745 5746 5745 5745 5743 5741 5740 5735 5733 5730 5727 5725 5722 5719 5714 5710 5706 5699 5694
5726 5732 5733 5735 5736 5737 5741 5744 5744 5741 5742 5741 5742 5742 5741 5740 5740 5741 5742 5743 5743 5744 5743 5743 5744 5744 5744 5743 5740 5735 5739 5742 5740 5738 5737 5735 5731 5728 5726 5722 5719 5716 5712 5708 5703 5700 5695 5690 5682
5720 5723 5726 5731 5733 5734 5737 5740 5738 5736 5738 5737 5737 5736 5736 5736 5736 5736 5737 5738 5739 5739 5739 5738 5738 5738 5738 5737 5737 5737 5736 5735 5732 5731 5728 5726 5723 5720 5717 5713 5709 5705 5701 5698 5694 5689 5682 5676 5668
5717 5718 5721 5723 5727 5728 5730 5733 5730 5731 5733 5731 5732 5730 5731 5731 5731 5731 5731 5732 5732 5733 5733 5732 5733 5733 5732 5732 5732 5731 5729 5728 5724 5723 5720 5717 5715 5711 5707 5703 5700 5696 5690 5685 5681 5675 5670 5662 5654